S51UL-6 Weather Reports


Display with metric or nautical units.
time (UTC)temp
F
wind
direction
speed
MPH
gust
MPH
rain 1hr
in
rain 24hr
in
rain mn
in
humidity
%
barometer
mb
20260903053108 59 23 0.0 0.0 0.00 4.92 0.00 89 1022.2
20260903052608 59 23 0.0 0.0 0.02 4.92 0.00 89 1022.0
20260903052109 58 23 0.0 0.0 0.02 4.92 0.00 89 1022.2
20260903051608 58 23 0.0 0.0 0.02 4.92 0.00 89 1022.2
20260903051108 58 23 0.0 0.0 0.02 4.92 0.00 89 1022.1
20260903050608 58 23 0.0 0.0 0.02 4.92 0.00 89 1021.9
20260903050109 58 45 0.0 0.0 0.02 4.92 0.00 88 1021.8
20260903045609 58 45 0.0 0.0 0.02 4.92 0.00 88 1021.9
20260903045108 58 45 0.0 0.0 0.04 4.92 0.00 88 1021.8
20260903044109 58 45 0.0 0.0 0.08 4.92 0.00 88 1021.7
20260903043609 58 45 0.0 0.0 0.08 4.92 0.00 88 1021.6
20260903043109 58 45 0.0 0.0 0.08 4.92 0.00 88 1021.6
20260903042609 59 45 0.0 0.0 0.06 4.90 0.00 88 1021.8
20260903042109 59 45 0.0 0.0 0.06 4.90 0.00 88 1021.6
20260903041109 59 45 0.0 0.0 0.06 4.90 0.00 88 1021.5
20260903040609 60 45 0.0 0.0 0.06 4.90 0.00 88 1021.3
20260903040109 60 45 0.0 0.0 0.06 4.90 0.00 88 1021.4
20260903034109 60 68 0.0 0.0 0.00 4.83 0.00 87 1021.2
20260903033109 60 68 0.0 0.0 0.00 4.83 0.00 87 1021.1
20260903032610 61 68 0.0 0.0 0.00 4.83 0.00 87 1021.1
20260903032109 61 68 0.0 0.0 0.00 4.83 0.00 87 1021.1
20260903031610 61 68 0.0 0.0 0.00 4.83 0.00 86 1021.1
20260903031110 61 68 0.0 0.0 0.00 4.83 0.00 86 1021.0
20260903030613 61 68 0.0 0.0 0.00 4.83 0.00 86 1021.1
20260903030110 61 68 0.0 0.0 0.00 4.83 0.00 86 1021.1
20260903025110 62 23 0.0 0.0 0.00 4.83 0.00 86 1021.4
20260903024610 62 23 0.0 0.0 0.00 4.83 0.00 85 1021.3
20260903024110 62 23 0.0 0.0 0.00 4.83 0.00 85 1021.4
20260903023110 63 23 0.0 0.0 0.00 4.83 0.00 86 1021.4
20260903022110 63 23 0.0 0.0 0.00 4.83 0.00 86 1021.4
20260903021610 63 23 0.0 0.0 0.00 4.83 0.00 86 1021.4
20260903020110 63 23 3.0 5.0 0.02 4.83 0.00 86 1021.2
20260903015610 63 23 2.0 5.0 0.02 4.83 0.00 86 1021.1
20260903015111 63 23 2.0 4.0 0.06 4.83 0.00 86 1021.0
20260903014610 63 23 2.0 4.0 0.06 4.83 0.00 86 1021.0
20260903014110 63 23 0.0 0.0 0.06 4.83 0.00 86 1021.1
20260903013611 63 23 0.0 0.0 0.08 4.83 0.00 86 1021.0
20260903013111 63 23 2.0 5.0 0.08 4.90 0.00 86 1021.0
20260903012611 63 23 4.0 5.0 0.10 4.90 0.00 87 1021.2
20260903011612 63 23 4.0 5.0 0.14 4.90 0.00 87 1021.0
20260903011111 63 23 3.0 4.0 0.16 4.90 0.00 87 1021.0
20260903010111 62 113 0.0 4.0 0.20 4.88 0.00 87 1021.0
20260903005613 62 113 0.0 0.0 0.16 4.83 0.00 86 1020.6
20260903005111 62 113 0.0 0.0 0.16 4.83 0.00 86 1020.7
20260903004611 62 113 0.0 0.0 0.16 4.83 0.00 86 1020.9
20260903004111 62 23 0.0 0.0 0.16 4.83 0.00 86 1020.7
20260903003111 62 23 0.0 0.0 0.16 5.85 0.00 86 1020.9
20260903002611 62 23 0.0 0.0 0.16 5.84 0.00 85 1020.9
20260903002112 62 23 0.0 0.0 0.14 5.80 0.00 86 1021.0
20260903001112 62 23 0.0 0.0 0.10 5.75 0.00 85 1021.4
20260903000112 62 23 0.0 0.0 0.08 5.71 0.00 85 1021.4
20260902235112 62 23 0.0 0.0 0.12 5.71 0.00 85 1021.5
20260902234112 62 23 0.0 0.0 0.16 5.71 0.00 85 1021.3
20260902233613 62 23 0.0 0.0 0.20 5.69 0.00 85 1021.3
20260902233112 62 23 0.0 0.0 0.20 7.06 0.00 85 1021.3
20260902232613 62 23 0.0 0.0 0.18 7.02 0.00 85 1021.2
20260902232112 62 23 0.0 0.0 0.24 7.02 0.00 85 1021.2
20260902231113 62 23 0.0 0.0 0.26 7.02 0.00 85 1021.1
20260902230612 62 23 0.0 0.0 0.28 7.02 0.00 85 1021.1
20260902230112 62 23 0.0 0.0 0.39 7.00 0.00 84 1021.1
20260902225112 62 23 0.0 0.0 0.39 6.96 0.00 84 1021.0
20260902224614 62 23 0.0 0.0 0.39 6.92 0.00 84 1021.0
20260902224113 62 23 0.0 0.0 0.41 6.92 0.00 84 1021.1
20260902223113 62 23 0.0 0.0 0.39 8.43 0.00 84 1020.9
20260902222614 62 23 0.0 0.0 0.39 8.41 0.00 84 1020.9
20260902221613 62 23 0.0 0.0 0.37 8.33 0.00 84 1020.9
20260902221113 63 23 0.0 0.0 0.35 8.31 0.00 84 1020.9
20260902220614 63 23 0.0 0.0 0.41 8.31 0.00 83 1020.9
20260902220113 62 23 0.0 0.0 0.32 8.18 0.00 83 1021.0
20260902215613 63 23 0.0 0.0 0.28 8.14 0.00 83 1020.9
20260902215115 63 23 0.0 0.0 0.26 8.10 0.00 83 1020.9
20260902214613 63 23 0.0 0.0 0.24 8.08 0.00 83 1020.7
20260902214113 63 23 0.0 0.0 0.24 8.08 0.00 83 1020.8
20260902213614 63 23 0.0 0.0 0.22 8.04 0.00 82 1020.8
20260902213114 63 23 0.0 0.0 0.20 9.10 0.00 82 1020.9
20260902212615 63 23 0.0 0.0 0.18 9.08 0.00 82 1020.8
20260902211614 64 23 0.0 0.0 0.14 9.04 0.00 82 1020.9
20260902211113 64 23 0.0 0.0 0.08 8.98 0.00 82 1020.8
20260902210114 63 23 0.0 0.0 0.04 8.94 0.00 82 1020.8
20260902205614 63 23 0.0 0.0 0.02 8.92 0.00 81 1020.8
20260902205114 64 23 0.0 0.0 0.02 8.92 0.00 80 1020.7
20260902204615 64 23 0.0 0.0 0.02 8.92 0.00 80 1020.6
20260902204114 64 23 0.0 0.0 0.02 8.92 0.00 80 1020.7
20260902203614 64 23 0.0 0.0 0.00 8.90 0.00 80 1020.6
20260902203114 64 23 0.0 0.0 0.00 9.99 0.00 79 1020.7
20260902202614 64 23 0.0 0.0 0.00 9.99 0.00 79 1020.5
20260902201614 65 23 0.0 0.0 0.00 9.99 0.00 78 1020.7
20260902201115 65 23 0.0 0.0 0.00 9.99 0.00 78 1020.7
20260902200617 65 23 0.0 0.0 0.00 9.99 0.00 78 1020.9
20260902200114 65 23 0.0 0.0 0.00 9.99 0.00 78 1020.6
20260902195614 66 23 0.0 0.0 0.00 9.99 0.00 77 1020.6
20260902195115 66 23 0.0 0.0 0.00 9.99 0.00 77 1020.8
20260902194114 67 23 0.0 0.0 0.00 9.99 0.00 77 1020.8
20260902193615 67 23 0.0 0.0 0.00 9.99 0.00 77 1020.6
20260902193115 67 23 0.0 0.0 0.00 9.99 0.00 77 1020.8
20260902192615 67 23 0.0 0.0 0.00 9.99 0.00 76 1020.6
20260902192116 67 23 0.0 0.0 0.00 9.99 0.00 76 1020.5
20260902191615 68 23 0.0 0.0 0.00 9.99 0.00 77 1020.5
20260902191115 68 23 0.0 3.0 0.00 9.99 0.00 77 1020.5
20260902190615 68 23 2.0 3.0 0.00 9.99 0.00 76 1020.3
20260902190115 68 23 1.0 3.0 0.00 9.99 0.00 77 1020.4
20260902185615 68 23 1.0 4.0 0.00 9.99 0.00 76 1020.2
20260902185115 68 45 1.0 4.0 0.00 9.99 0.00 76 1020.4
20260902184616 68 45 0.0 0.0 0.00 9.99 0.00 75 1020.3
20260902184115 68 45 0.0 0.0 0.00 9.99 0.00 75 1020.1
20260902183116 68 45 0.0 0.0 0.00 9.99 0.00 74 1019.9
20260902182615 68 45 0.0 0.0 0.00 9.99 0.00 74 1019.9
20260902181615 69 45 0.0 0.0 0.00 9.99 0.00 73 1019.9
20260902181117 69 45 0.0 0.0 0.00 9.99 0.00 72 1019.6
20260902180617 69 45 0.0 0.0 0.00 9.99 0.00 71 1019.7
20260902180116 70 45 0.0 0.0 0.00 9.99 0.00 71 1019.5
20260902175616 70 45 0.0 0.0 0.00 9.99 0.00 71 1019.3
20260902175116 70 135 0.0 0.0 0.00 9.99 0.00 70 1019.2
20260902174616 71 135 0.0 0.0 0.00 9.99 0.00 69 1019.1
20260902174117 71 135 0.0 0.0 0.00 9.99 0.00 69 1019.1
20260902173616 72 135 0.0 0.0 0.00 9.99 0.00 68 1019.1
20260902173116 72 135 0.0 0.0 0.00 9.99 0.00 67 1019.0
20260902172616 73 135 0.0 0.0 0.06 9.99 0.00 67 1018.9
20260902171116 74 135 0.0 0.0 0.06 9.99 0.00 64 1018.8
20260902170618 75 135 0.0 0.0 0.10 9.99 0.00 63 1018.9
20260902170118 75 135 0.0 0.0 0.10 9.99 0.00 62 1018.9
20260902165617 76 135 0.0 0.0 0.10 9.99 0.00 62 1019.0
20260902164617 76 135 0.0 0.0 0.10 9.99 0.00 61 1019.1
20260902164117 77 135 0.0 0.0 0.12 9.99 0.00 61 1019.2
20260902163617 77 135 0.0 0.0 0.14 9.99 0.00 61 1019.0
20260902162617 77 135 0.0 0.0 0.14 9.99 0.00 59 1019.3
20260902162118 78 135 0.0 0.0 0.16 9.99 0.00 58 1019.4
20260902161617 78 135 0.0 0.0 0.16 9.99 0.00 57 1019.3
20260902160618 79 135 0.0 0.0 0.24 9.99 0.00 56 1019.4
20260902160117 79 135 0.0 0.0 0.37 9.99 0.00 56 1019.2
20260902155618 79 135 0.0 0.0 0.37 9.99 0.00 56 1019.2
20260902155117 80 135 0.0 0.0 0.37 9.99 0.00 55 1019.1
20260902154617 80 135 0.0 0.0 0.35 9.99 0.00 55 1019.0
20260902154117 80 135 0.0 0.0 0.35 9.99 0.00 54 1019.1
20260902153619 80 135 1.0 4.0 0.30 9.99 0.00 54 1019.3
20260902153118 80 135 1.0 4.0 0.30 9.99 0.00 53 1019.3
20260902152618 80 135 1.0 4.0 0.24 9.99 0.00 52 1019.3
20260902151618 81 158 4.0 4.0 0.24 9.99 0.00 51 1019.2
20260902151118 81 158 4.0 4.0 0.14 9.99 0.00 51 1019.3
20260902150118 82 158 4.0 5.0 0.04 9.99 0.00 50 1019.5
20260902145619 82 158 4.0 5.0 0.04 9.99 0.00 48 1019.7
20260902145118 83 158 4.0 5.0 0.04 9.99 0.00 48 1019.6
20260902144618 83 158 3.0 5.0 0.04 9.99 0.00 49 1019.4
20260902144118 84 158 3.0 4.0 0.04 9.99 0.00 49 1019.5
20260902143618 84 135 4.0 9.0 0.06 9.99 0.00 49 1019.6
20260902143118 84 135 5.0 9.0 0.06 9.99 0.00 48 1019.4
20260902142118 84 158 5.0 6.0 0.20 9.99 0.00 49 1019.6
20260902141620 84 135 4.0 6.0 0.20 9.99 0.00 48 1019.7
20260902141118 85 135 4.0 6.0 0.20 9.99 0.00 47 1019.7
20260902135619 86 158 5.0 7.0 0.24 9.99 0.00 46 1019.7
20260902135119 86 158 4.0 6.0 0.26 9.99 0.00 46 1020.0
20260902134619 86 158 4.0 8.0 0.30 9.99 0.00 47 1019.9
20260902134118 85 158 4.0 8.0 0.30 9.99 0.00 46 1019.9
20260902133119 86 158 4.0 5.0 0.32 9.99 0.00 45 1019.9
20260902132619 86 158 4.0 4.0 0.28 9.99 0.00 45 1020.0
20260902132119 86 158 4.0 7.0 0.24 9.99 0.00 44 1019.9
20260902131119 87 135 4.0 7.0 0.22 9.99 0.00 43 1020.0
20260902130619 88 135 4.0 5.0 0.30 9.99 0.00 44 1020.0
20260902130119 87 135 4.0 5.0 0.47 9.99 0.00 44 1020.1
20260902125620 88 158 4.0 5.0 0.45 9.99 0.00 43 1020.3
20260902125119 88 135 4.0 5.0 0.67 9.99 0.00 44 1020.3
20260902124619 88 158 2.0 5.0 0.67 9.99 0.00 43 1020.2
20260902124120 88 158 2.0 4.0 0.84 9.99 0.00 43 1020.2
20260902123620 89 135 3.0 4.0 0.84 9.99 0.00 45 1020.4
20260902123120 89 135 4.0 5.0 0.92 9.99 0.00 45 1020.4
20260902122121 89 135 2.0 4.0 1.16 9.99 0.00 44 1020.4
20260902121620 89 135 2.0 4.0 1.16 9.99 0.00 45 1020.6
20260902120621 90 180 1.0 4.0 1.20 9.99 0.00 43 1021.0
20260902120120 89 158 2.0 4.0 1.32 9.99 0.00 45 1021.1
20260902115120 90 158 1.0 5.0 1.06 9.99 0.00 44 1021.0
20260902114121 90 135 1.0 3.0 0.92 9.99 0.00 47 1021.1
20260902113620 90 135 1.0 4.0 0.85 9.99 0.00 47 1021.2
20260902113121 90 135 1.0 4.0 0.89 9.99 0.00 48 1021.1
20260902112121 90 158 2.0 4.0 0.69 9.99 0.00 46 1021.6
20260902111621 92 158 1.0 4.0 0.69 9.99 0.00 45 1021.8
20260902110121 89 158 1.0 3.0 0.43 9.99 0.00 51 1021.7
20260902104121 85 135 0.0 2.0 0.41 9.99 0.00 57 1021.9
20260902103621 83 158 0.0 2.0 0.30 9.99 0.00 57 1022.2
20260902103121 82 158 0.0 0.0 0.30 9.99 0.00 57 1022.3
20260902101621 80 180 1.0 3.0 0.35 9.99 0.00 60 1022.3
20260902094621 78 158 0.0 0.0 0.28 9.99 0.00 65 1022.6
20260902094121 78 158 0.0 0.0 0.28 9.99 0.00 66 1022.8
20260902090625 76 68 0.0 0.0 0.26 9.99 0.00 68 1022.7
20260902081623 75 23 0.0 0.0 0.39 9.99 0.00 73 1023.0
20260902073123 67 23 1.0 3.0 0.02 9.99 0.00 88 1023.2
20260902072623 66 23 0.0 3.0 0.02 9.99 0.00 89 1023.1
20260902071123 64 23 0.0 0.0 0.00 9.99 0.00 89 1022.9
20260902070124 63 23 1.0 5.0 0.00 9.99 0.00 90 1022.8
20260902064124 62 338 0.0 0.0 0.00 9.99 0.00 90 1022.8
20260902063623 62 23 0.0 0.0 0.00 9.99 0.00 90 1022.9
20260902062948 62 23 0.0 0.0 0.00 9.99 0.00 90 1022.8
20260902062624 62 23 0.0 0.0 0.00 9.99 0.00 90 1022.8
20260902060625 61 23 0.0 0.0 0.00 9.99 0.00 90 1023.0
20260902060127 61 23 0.0 0.0 0.00 9.99 0.00 90 1023.0
20260902055624 61 23 0.0 0.0 0.00 9.99 0.00 90 1022.9
20260902054624 61 23 0.0 0.0 0.00 9.99 0.00 90 1023.0
20260902053625 60 23 0.0 0.0 0.00 9.99 0.00 90 1023.0